This is the latest recevied weather packets stored in our database for station/object KI6PPU. If no packets are shown the sender has not sent any weather packets the latest 10 day(s).
| Time | Temp. | Humidity | Pressure | Rain* | Wind** | Luminosity | Snow |
|---|---|---|---|---|---|---|---|
| 1777764261 | 23.33° C | 58% | 1013.2 hPa | 0 mm | - | 343 W/m² | - |
| 1777763958 | 22.78° C | 58% | 1013.4 hPa | 0 mm | - | 314 W/m² | - |
| 1777763655 | 23.33° C | 58% | 1013.4 hPa | 0 mm | - | 307 W/m² | - |
| 1777763354 | 23.33° C | 60% | 1013.4 hPa | 0 mm | - | 314 W/m² | - |
| 1777763051 | 23.89° C | 59% | 1013.5 hPa | 0 mm | - | 341 W/m² | - |
| 1777762749 | 23.89° C | 58% | 1013.6 hPa | 0 mm | - | 307 W/m² | - |
| 1777762444 | 23.89° C | 55% | 1013.7 hPa | 0 mm | - | 340 W/m² | - |
| 1777762142 | 23.89° C | 61% | 1013.7 hPa | 0 mm | - | 369 W/m² | - |
| 1777761837 | 23.89° C | 59% | 1013.8 hPa | 0 mm | - | 428 W/m² | - |
| 1777761535 | 23.89° C | 60% | 1013.9 hPa | 0 mm | - | 502 W/m² | - |
| 1777761233 | 23.89° C | 55% | 1014 hPa | 0 mm | - | 387 W/m² | - |
| 1777760930 | 23.89° C | 55% | 1013.8 hPa | 0 mm | - | 510 W/m² | - |
| 1777760628 | 23.33° C | 57% | 1014 hPa | 0 mm | - | 473 W/m² | - |
| 1777760323 | 23.33° C | 54% | 1014.1 hPa | 0 mm | - | 429 W/m² | - |
| 1777760020 | 23.33° C | 56% | 1014.3 hPa | 0 mm | - | 673 W/m² | - |
| 1777759717 | 23.89° C | 56% | 1014.3 hPa | 0 mm | - | 581 W/m² | - |
| 1777759413 | 23.33° C | 59% | 1014.3 hPa | 0 mm | - | 500 W/m² | - |
| 1777759110 | 23.33° C | 57% | 1014.5 hPa | 0 mm | - | 584 W/m² | - |
| 1777758807 | 22.22° C | 57% | 1014.5 hPa | 0 mm | - | 659 W/m² | - |
| 1777758504 | 22.22° C | 57% | 1014.5 hPa | 0 mm | - | 508 W/m² | - |
| 1777758200 | 22.22° C | 61% | 1014.4 hPa | 0 mm | - | 264 W/m² | - |
| 1777757898 | 22.78° C | 57% | 1014.7 hPa | 0 mm | - | 289 W/m² | - |
| 1777757595 | 22.78° C | 57% | 1014.5 hPa | 0 mm | - | 289 W/m² | - |
| 1777757294 | 23.89° C | 55% | 1014.5 hPa | 0 mm | - | 459 W/m² | - |
| 1777756992 | 23.89° C | 56% | 1014.6 hPa | 0 mm | - | 629 W/m² | - |
* Rain latest hour (hover to see other rain measurements)
** Current wind speed in m/s (hover to see current wind gust speed)